CDT,Max TemperatureF,Mean TemperatureF,Min TemperatureF,Max Dew PointF,MeanDew PointF,Min DewpointF,Max Humidity, Mean Humidity, Min Humidity, Max Sea Level PressureIn, Mean Sea Level PressureIn, Min Sea Level PressureIn, Max VisibilityMiles, Mean VisibilityMiles, Min VisibilityMiles, Max Wind SpeedMPH, Mean Wind SpeedMPH, Max Gust SpeedMPH,PrecipitationIn, CloudCover, Events, WindDirDegrees
2012-3-1,49,39,29,34,29,25,92,74,56,29.89,29.79,29.67,10,10,9,20,10,24,0.00,3,,31
2012-3-2,40,35,30,34,30,22,100,82,64,29.82,29.64,29.56,10,6,0,25,14,31,0.09,6,Fog-Rain-Snow,335
2012-3-3,38,30,22,23,20,17,81,67,52,29.94,29.87,29.79,10,10,7,26,16,35,T,5,Snow,294
2012-3-4,29,24,18,27,23,15,92,85,77,30.19,29.95,29.85,10,5,0,18,6,22,0.09,7,Fog-Snow,308
2012-3-5,44,27,10,28,22,13,100,75,49,30.37,30.23,30.01,10,9,5,21,10,26,0.00,0,,191
2012-3-6,72,55,37,41,35,23,62,46,29,29.98,29.81,29.72,10,10,10,36,20,43,0.00,0,,189
2012-3-7,67,51,35,52,42,32,92,74,55,29.99,29.83,29.71,10,9,2,32,20,45,0.24,7,Rain,262
2012-3-8,48,39,30,32,24,18,92,62,31,30.37,30.23,29.99,10,10,10,31,14,40,0.00,1,,299
2012-3-9,46,35,23,23,16,11,74,51,27,30.62,30.51,30.40,10,10,10,16,9,21,0.00,0,,5
2012-3-10,66,50,33,31,26,20,61,42,22,30.38,30.25,30.14,10,10,10,26,15,33,0.00,0,,195
2012-3-11,62,50,37,52,41,26,96,67,38,30.15,29.99,29.80,10,8,2,29,14,36,0.14,5,Rain,162
2012-3-12,62,53,44,51,48,44,100,80,60,29.95,29.79,29.75,10,10,7,18,10,23,0.02,6,Rain,221
2012-3-13,75,55,35,50,43,35,100,71,41,30.09,30.01,29.91,10,5,0,17,8,21,0.00,0,Fog,174
2012-3-14,81,69,57,60,56,45,84,67,49,29.91,29.88,29.82,10,10,10,23,14,29,0.00,2,,195
2012-3-15,80,70,60,61,59,55,90,68,45,30.02,29.97,29.91,10,10,8,20,9,25,0.00,2,,222
2012-3-16,82,70,58,63,59,57,100,73,45,29.98,29.93,29.88,10,9,5,23,12,29,0.00,1,,181
2012-3-17,82,71,59,61,58,50,93,70,47,29.95,29.90,29.83,10,10,8,26,15,35,0.00,1,,168
2012-3-18,81,70,59,60,57,55,87,70,52,29.92,29.87,29.81,10,10,9,31,16,38,0.00,3,,169
2012-3-19,81,70,59,61,59,55,93,69,45,29.84,29.78,29.68,10,10,4,35,15,48,0.37,4,Rain-Thunderstorm,172
2012-3-20,76,67,57,59,56,54,93,71,49,29.94,29.84,29.77,10,10,10,26,12,35,0.09,6,Rain,176
2012-3-21,72,65,58,61,58,56,93,80,66,30.00,29.95,29.91,10,10,9,16,8,22,0.26,6,Rain,115
2012-3-22,65,56,47,59,54,47,100,86,72,30.01,29.96,29.91,10,9,2,20,7,24,0.32,6,Rain,145
2012-3-23,64,56,47,54,50,46,100,84,67,29.96,29.91,29.83,10,4,0,18,7,22,0.00,5,Fog,22
2012-3-24,68,60,51,59,54,49,93,83,73,30.01,29.90,29.82,10,8,2,15,6,18,0.11,7,Rain,328
2012-3-25,75,60,44,57,52,45,100,73,46,30.10,30.04,30.01,10,4,0,10,3,20,0.00,1,Fog,328
2012-3-26,61,54,47,52,42,32,93,69,44,30.22,30.13,30.02,10,9,5,28,18,32,0.00,3,,97
2012-3-27,76,62,48,58,50,34,78,66,53,30.00,29.88,29.79,10,10,10,31,18,38,0.00,1,,196
2012-3-28,72,57,41,48,42,37,86,61,35,30.04,29.98,29.90,10,10,10,14,7,18,0.00,0,,326
2012-3-29,58,54,49,51,46,37,86,70,54,30.01,29.91,29.72,10,10,9,30,13,39,0.17,5,Rain-Thunderstorm,115
2012-3-30,58,52,45,52,49,45,96,88,80,29.91,29.78,29.67,10,6,2,30,6,39,0.39,7,Rain-Thunderstorm,32
2012-3-31,70,60,49,58,51,46,100,83,66,29.90,29.82,29.66,10,6,3,16,10,18,0.01,4,,131